Kuiper-00232

operational
NORAD ID: 67148 Int'l Des: 2025-301 Owner: KUIP Country: US Constellation: kuiper
NOTLE

Über Kuiper-00232

Beschreibung wird geladen...

Live-Position

3D-Globus wird geladen...

Nächste Überflüge

Höhenverlauf

Altitude vs Time

uPlot chart will show altitude changes over time

Zweizeiliger Elementsatz

1 67148U 25301R 26034.24258427 .00036106 00000-0 96296-3 0 9997
2 67148 51.8711 231.3834 0002650 193.6298 166.4618 15.37796257 8446
Epoch: 3. Feb. 2026 • Age: 13 hours

Aktueller Status

Höhe 454.3 km
Geschwindigkeit 7.64 km/s
Subsatellitenpunkt 14.26°N, 169.32°W
Startdatum 16. Dez. 2025
Alter 0.1 years
Typ internet

Technische Details

Klassifizierung Payload
Masse 490.00 kg
Trockenmasse 490.00 kg
Gesamtmasse 490.00 kg
Länge 1.80 m
Durchmesser 0.70 m
Spannweite 5.00 m
Form Box + 2 pan
Hersteller KUIP
Bus-Typ Kuiper
Phasenstatus In Orbit
Besitzer/Staat KUIP/US

Große Konstellationen

Loading constellations...